Content
SEND FEEDBACK

Daily
Averages
Monthly
Summary
United States of America

CAYOTE, TEXAS


Home > North America > United States > Texas
Elevation: 710 feet     Latitude: 31 48N     Longitude: 097 26W

WEATHER
 
SELECT A DAY
Number of Records: 200,473;   Date Range: 1/1/95 - 7/28/14
 
SHARE

PRINT THIS DATA

[ ← Previous Day ]
WEATHER ALMANAC - FEBRUARY 13, 2013
[ Next Day → ]
[ °C ]   °F
Weather ElementAverageHighLow
Temperature46.3 °F57.9 °F (4:51 pm)39 °F (7:51 am)
Dewpoint35.1 °F37.9 °F (10:51 pm)32 °F (4:51 pm)
Humidity66.5 %86 % (11:51 pm)37 % (4:51 pm)
Barometer30.10 in30.18 in (9:51 am)30.05 in (12:51 am)
Wind Speed7.4 mph21.9 mph (12:51 am)
Wind Gust29.9 mph (12:51 am)
Weather ElementAverage
Visibility10 mi
Wind DirectionSW (219.6 °)

Weather ElementTotal
Precipitation---
Heating Degree Days16.6 (Base 65)
Averaged from 26 records on February 13, 2013
WEATHER CONDITIONS BREAKOUT
WIND DIRECTION BREAKOUT
WEATHER BY HOUR - FEBRUARY 13, 2013
[ °C ]   °F
Local TimeTemperatureDewpointHumidityBarometerVisibilityWind DirectionWind SpeedGust SpeedPrecipitationEventsConditions
12:51 AM44.1 °F35.1 °F71 %30.05 in10.0 miNNW (330°)21.9 mph29.9 mphMostly Cloudy
1:51 AM43.0 °F35.1 °F74 %30.07 in10.0 miNNW (330°)19.6 mph25.3 mphOvercast
2:51 AM43.0 °F35.1 °F74 %30.08 in10.0 miNNW (340°)16.1 mphOvercast
3:51 AM42.1 °F34.0 °F73 %30.11 in10.0 miNW (320°)10.4 mphOvercast
4:51 AM42.1 °F34.0 °F73 %30.10 in10.0 miNW (320°)13.8 mph20.7 mphOvercast
5:51 AM41.0 °F34.0 °F76 %30.11 in10.0 miNW (320°)6.9 mphOvercast
6:51 AM41.0 °F34.0 °F76 %30.13 in10.0 miNW (320°)6.9 mphMostly Cloudy
7:12 AM39.2 °F33.8 °F81 %30.14 in10.0 miNNW (330°)3.5 mphPartly Cloudy
7:51 AM39.0 °F34.0 °F82 %30.15 in10.0 miWNW (300°)4.6 mphPartly Cloudy
8:51 AM43.0 °F34.0 °F71 %30.17 in10.0 miNW (320°)4.6 mphClear
9:14 AM44.6 °F35.6 °F71 %30.17 in10.0 miNorth (350°)8.1 mphScattered Clouds
9:51 AM45.0 °F35.1 °F68 %30.18 in10.0 miNNW (330°)8.1 mphScattered Clouds
10:51 AM46.9 °F35.1 °F63 %30.18 in10.0 miVariable4.6 mphPartly Cloudy
11:51 AM50.0 °F36.0 °F59 %30.16 in10.0 miNNW (340°)6.9 mphClear
12:51 PM52.0 °F36.0 °F54 %30.13 in10.0 miNW (320°)5.8 mphClear
1:51 PM55.0 °F37.0 °F51 %30.09 in10.0 miVariable3.5 mphClear
2:51 PM55.0 °F35.1 °F47 %30.08 in10.0 miEast (80°)3.5 mphClear
3:51 PM57.0 °F33.1 °F40 %30.06 in10.0 miCalmClear
4:51 PM57.9 °F32.0 °F37 %30.05 in10.0 miCalmClear
5:51 PM55.0 °F34.0 °F45 %30.05 in10.0 miSSE (150°)3.5 mphClear
6:51 PM48.9 °F36.0 °F61 %30.06 in10.0 miESE (110°)5.8 mphClear
7:51 PM45.0 °F36.0 °F71 %30.07 in10.0 miSE (130°)6.9 mphClear
8:51 PM45.0 °F37.0 °F74 %30.07 in10.0 miSE (130°)6.9 mphClear
9:51 PM46.0 °F37.0 °F71 %30.07 in10.0 miSSE (160°)8.1 mphClear
10:51 PM44.1 °F37.9 °F79 %30.08 in10.0 miSouth (180°)5.8 mphClear
11:51 PM39.9 °F36.0 °F86 %30.08 in10.0 miSSW (200°)5.8 mphClear
Hourly data recorded from KACT, located miles away from Cayote, Texas







STORIES FROM OUR PARTNERS